Regional Weather Roundup
Issued by NWS Goodland, KS

Home | Current Version | Previous Version | Text Only | Print | Product List | Glossary On
Versions: 1 2 3 4 5 6 7 8 9 10 11 12 13 14 15 16 17 18 19 20 21 22 23 24 25 26 27 28 29 30 31 32 33 34 35 36 37 38 39 40 41 42 43 44 45 46 47 48 49 50
000
ASUS43 KGLD 312208
RWRGLD

GOODLAND FORECAST AREA HOURLY WEATHER ROUNDUP
NATIONAL WEATHER SERVICE GOODLAND KS
400 PM MDT MON AUG 31 2015

...OFFICIAL OBSERVATIONS...

CITY           SKY/WX    TMP DP  RH WIND       PRES   REMARKS
GOODLAND KS    SUNNY     93  44  18 VRB3      29.92F
HILL CITY KS   SUNNY    100  50  18 S10       29.86S
IMPERIAL NEB   MOSUNNY   92  55  28 NE12      29.93F
MCCOOK NEB     SUNNY     96  57  27 E9        29.87F
AKRON CO       MOSUNNY   87  45  23 SE8       30.02F
BURLINGTON CO  SUNNY     90  49  24 E9        29.96F
LIMON CO       MOSUNNY   87  46  24 NE12      30.07F
$$

...UNOFFICIAL OBSERVATIONS...

CITY           SKY/WX    TMP DP  RH WIND       PRES   REMARKS
COLBY KS       SUNNY     97  54  23 SE8G18    29.91F
GOVE KS          N/A     97  32  10 MISG        N/A
LENORA KS        N/A     97  32  10 MISG        N/A
NORTON KS      SUNNY     93  46  20 SE6       29.86S
SHARON SPRINGS   N/A     95  56  26 SE10G21     N/A
KIT CARSON CO    N/A     91  53  27 MISG        N/A
YUMA CO          N/A     89  51  26 E10         N/A
$$


USA.gov is the U.S. government's official web portal to all federal, state and local government web resources and services.